TimeEDT,TemperatureF,Dew PointF,Humidity,Sea Level PressureIn,VisibilityMPH,Wind Direction,Wind SpeedMPH,Gust SpeedMPH,PrecipitationIn,Events,Conditions,WindDirDegrees,DateUTC
12:53 AM,71.1,66.9,87,30.03,10.0,South,8.1,-,N/A,,Clear,170,2013-05-11 04:53:00
1:53 AM,71.1,66.9,87,30.01,10.0,South,8.1,-,N/A,,Clear,170,2013-05-11 05:53:00
2:53 AM,71.1,66.9,87,30.01,10.0,SW,5.8,-,N/A,,Clear,220,2013-05-11 06:53:00
3:53 AM,70.0,66.0,87,30.00,10.0,SW,4.6,-,N/A,,Clear,220,2013-05-11 07:53:00
4:53 AM,69.1,64.9,87,29.99,10.0,SW,4.6,-,N/A,,Clear,220,2013-05-11 08:53:00
5:53 AM,66.9,64.0,90,29.99,10.0,WSW,4.6,-,N/A,,Overcast,240,2013-05-11 09:53:00
6:53 AM,66.9,63.0,87,29.99,9.0,SW,4.6,-,N/A,,Mostly Cloudy,220,2013-05-11 10:53:00
7:53 AM,68.0,62.1,81,29.98,10.0,SSW,6.9,-,N/A,,Mostly Cloudy,200,2013-05-11 11:53:00
8:53 AM,72.0,62.1,71,29.99,10.0,WSW,5.8,-,N/A,,Mostly Cloudy,250,2013-05-11 12:53:00
9:53 AM,73.0,62.1,68,30.00,10.0,WSW,8.1,-,N/A,,Mostly Cloudy,250,2013-05-11 13:53:00
10:53 AM,77.0,61.0,58,30.00,10.0,West,6.9,-,N/A,,Mostly Cloudy,270,2013-05-11 14:53:00
11:53 AM,81.0,61.0,50,29.99,10.0,West,13.8,17.3,N/A,,Mostly Cloudy,270,2013-05-11 15:53:00
12:53 PM,82.9,60.1,46,29.97,10.0,West,13.8,21.9,N/A,,Overcast,260,2013-05-11 16:53:00
1:53 PM,84.0,61.0,46,29.94,10.0,West,9.2,18.4,N/A,,Mostly Cloudy,260,2013-05-11 17:53:00
2:53 PM,84.0,62.1,47,29.94,10.0,West,12.7,18.4,N/A,,Mostly Cloudy,270,2013-05-11 18:53:00
3:53 PM,84.0,62.1,47,29.93,10.0,West,13.8,-,N/A,,Mostly Cloudy,260,2013-05-11 19:53:00
4:53 PM,84.0,62.1,47,29.92,10.0,West,10.4,-,N/A,,Mostly Cloudy,260,2013-05-11 20:53:00
5:53 PM,82.9,63.0,51,29.91,10.0,WSW,10.4,-,N/A,,Overcast,250,2013-05-11 21:53:00
6:53 PM,81.0,63.0,54,29.91,10.0,WSW,5.8,-,N/A,,Overcast,250,2013-05-11 22:53:00
7:53 PM,80.1,63.0,56,29.91,10.0,SSW,5.8,-,N/A,,Overcast,200,2013-05-11 23:53:00
8:53 PM,78.1,64.0,62,29.93,10.0,SW,6.9,-,N/A,,Overcast,230,2013-05-12 00:53:00
9:53 PM,73.0,66.0,79,29.92,10.0,SW,5.8,-,0.00,,Overcast,230,2013-05-12 01:53:00
10:53 PM,71.1,66.9,87,29.92,10.0,SSW,5.8,-,N/A,,Overcast,200,2013-05-12 02:53:00
11:53 PM,71.1,66.0,84,29.93,10.0,WSW,5.8,-,N/A,,Overcast,240,2013-05-12 03:53:00